Gadsden, AL

6:38 AM CDT on July 22, 2017 (GMT -0500)
Gadsden Municipal

Weather History for KGAD - November, 2010

Change the Weather History Date:

Tuesday, November 2, 2010

  Actual Average Record
Temperature  
Mean Temperature 60 °F -  
Max Temperature 64 °F 67 °F 87 °F (1935)
Min Temperature 57 °F 43 °F 24 °F (2014)
Degree Days  
Heating Degree Days 4    
Growing Degree Days 10 (Base 50)    
Moisture  
Dew Point 47 °F    
Average Humidity 62    
Maximum Humidity 67    
Minimum Humidity 59    
Precipitation  
Precipitation 0.00 in - - ()
Sea Level Pressure  
Sea Level Pressure 30.18 in    
Wind  
Wind Speed 10 mph (ENE)    
Max Wind Speed 15 mph    
Max Gust Speed 22 mph    
Visibility 10 miles    
Events      
Averages and records for this station are not official NWS values.
T = Trace of Precipitation, MM = Missing Value Source: NWS Daily Summary

Daily Weather History Graph

Daily Weather History Graph

Search for Another Location

Airport or City:

Trip Planner

Search our weather history database for the weather conditions in past years. The results will help you decide how hot, cold, wet, or windy it might be!

Date:

Astronomy

Nov. 02, 2010 Rise Set
Actual Time 7:04 AM CDT 5:50 PM CDT
Civil Twilight 6:38 AM CDT 6:16 PM CDT
Nautical Twilight 6:09 AM CDT 6:46 PM CDT
Astronomical Twilight 5:39 AM CDT 7:15 PM CDT
Moon 3:01 AM CDT (11/2) 3:20 PM CDT (11/2)
Length of Visible Light 11h 37m
Length of Day
10h 45m
Waning Crescent, 16% of the Moon is Illuminated
Nov 2
Waning Crescent
Nov 5
New
Nov 13
First Quarter
Nov 21
Full
Nov 28
Last Quarter

Hourly Weather History & Observations

Time (CDT) Temp. Dew Point Humidity Pressure Visibility Wind Dir Wind Speed Gust Speed Precip Events Conditions
12:15 AM 59.0 °F 46.4 °F 63% 30.18 in 10.0 mi ENE 9.2 mph - N/A   Clear
12:35 AM 59.0 °F 46.4 °F 63% 30.19 in 10.0 mi ENE 10.4 mph - N/A   Partly Cloudy
12:55 AM 59.0 °F 46.4 °F 63% 30.19 in 10.0 mi East 6.9 mph - N/A   Mostly Cloudy
1:15 AM 59.0 °F 46.4 °F 63% 30.19 in 10.0 mi ENE 6.9 mph - N/A   Overcast
1:35 AM 59.0 °F 46.4 °F 63% 30.19 in 10.0 mi ENE 9.2 mph - N/A   Overcast
1:55 AM 59.0 °F 46.4 °F 63% 30.20 in 10.0 mi ENE 8.1 mph - N/A   Overcast
2:15 AM 59.0 °F 46.4 °F 63% 30.20 in 10.0 mi ENE 6.9 mph - N/A   Overcast
2:35 AM 59.0 °F 46.4 °F 63% 30.20 in 10.0 mi ENE 8.1 mph - N/A   Overcast
2:55 AM 59.0 °F 46.4 °F 63% 30.18 in 10.0 mi ENE 9.2 mph - N/A   Overcast
3:15 AM 57.2 °F 46.4 °F 67% 30.18 in 10.0 mi East 9.2 mph - N/A   Overcast
3:35 AM 59.0 °F 44.6 °F 59% 30.18 in 10.0 mi East 9.2 mph - N/A   Overcast
3:55 AM 57.2 °F 44.6 °F 63% 30.18 in 10.0 mi East 9.2 mph - N/A   Overcast
4:15 AM 57.2 °F 44.6 °F 63% 30.18 in 10.0 mi ENE 8.1 mph - N/A   Overcast
4:35 AM 57.2 °F 44.6 °F 63% 30.20 in 10.0 mi ENE 9.2 mph - N/A   Mostly Cloudy
4:55 AM 57.2 °F 46.4 °F 67% 30.20 in 10.0 mi ENE 6.9 mph - N/A   Mostly Cloudy
5:15 AM 57.2 °F 44.6 °F 63% 30.20 in 10.0 mi East 8.1 mph - N/A   Overcast
5:35 AM 57.2 °F 44.6 °F 63% 30.20 in 10.0 mi East 10.4 mph - N/A   Overcast
5:55 AM 57.2 °F 44.6 °F 63% 30.20 in 10.0 mi East 9.2 mph - N/A   Mostly Cloudy
6:15 AM 57.2 °F 44.6 °F 63% 30.20 in 10.0 mi East 10.4 mph - N/A   Mostly Cloudy
6:35 AM 57.2 °F 44.6 °F 63% 30.20 in 10.0 mi East 9.2 mph - N/A   Overcast
6:55 AM 57.2 °F 44.6 °F 63% 30.20 in 10.0 mi East 13.8 mph - N/A   Overcast
7:15 AM 57.2 °F 44.6 °F 63% 30.20 in 10.0 mi East 11.5 mph - N/A   Overcast
7:35 AM 57.2 °F 44.6 °F 63% 30.21 in 10.0 mi East 10.4 mph - N/A   Overcast
7:55 AM 57.2 °F 44.6 °F 63% 30.21 in 10.0 mi ENE 12.7 mph - N/A   Overcast
8:15 AM 57.2 °F 44.6 °F 63% 30.22 in 10.0 mi East 12.7 mph - N/A   Overcast
8:35 AM 57.2 °F 46.4 °F 67% 30.23 in 10.0 mi ENE 10.4 mph - N/A   Overcast
8:55 AM 57.2 °F 46.4 °F 67% 30.23 in 10.0 mi ENE 11.5 mph - N/A   Overcast
9:15 AM 59.0 °F 46.4 °F 63% 30.23 in 10.0 mi East 10.4 mph - N/A   Overcast
9:35 AM 60.8 °F 48.2 °F 63% 30.22 in 10.0 mi East 10.4 mph 16.1 mph N/A   Overcast
9:55 AM 62.6 °F 48.2 °F 59% 30.22 in 10.0 mi East 13.8 mph - N/A   Mostly Cloudy
10:15 AM 62.6 °F 48.2 °F 59% 30.22 in 10.0 mi East 15.0 mph 19.6 mph N/A   Partly Cloudy
10:35 AM 62.6 °F 48.2 °F 59% 30.22 in 10.0 mi East 13.8 mph 21.9 mph N/A   Scattered Clouds
10:55 AM 62.6 °F 48.2 °F 59% 30.22 in 10.0 mi ESE 13.8 mph 19.6 mph N/A   Mostly Cloudy
11:15 AM 60.8 °F 48.2 °F 63% 30.22 in 10.0 mi East 11.5 mph - N/A   Mostly Cloudy
11:35 AM 62.6 °F 48.2 °F 59% 30.21 in 10.0 mi East 12.7 mph - N/A   Overcast
11:55 AM 62.6 °F 48.2 °F 59% 30.20 in 10.0 mi East 15.0 mph 19.6 mph N/A   Overcast
12:15 PM 60.8 °F 48.2 °F 63% 30.19 in 10.0 mi East 11.5 mph - N/A   Overcast
12:35 PM 60.8 °F 48.2 °F 63% 30.18 in 10.0 mi East 12.7 mph - N/A   Overcast
12:55 PM 62.6 °F 48.2 °F 59% 30.17 in 10.0 mi East 10.4 mph - N/A   Overcast
1:15 PM 62.6 °F 48.2 °F 59% 30.15 in 10.0 mi East 8.1 mph - N/A   Overcast
1:35 PM 62.6 °F 50.0 °F 63% 30.15 in 10.0 mi East 10.4 mph - N/A   Overcast
1:55 PM 62.6 °F 50.0 °F 63% 30.14 in 10.0 mi East 10.4 mph 16.1 mph N/A   Overcast
2:15 PM 64.4 °F 50.0 °F 59% 30.13 in 10.0 mi East 10.4 mph - N/A   Overcast
2:35 PM 64.4 °F 50.0 °F 59% 30.13 in 10.0 mi East 9.2 mph - N/A   Overcast
2:55 PM 64.4 °F 50.0 °F 59% 30.12 in 10.0 mi East 12.7 mph - N/A   Mostly Cloudy
3:15 PM 64.4 °F 50.0 °F 59% 30.12 in 10.0 mi East 8.1 mph - N/A   Clear
3:35 PM 64.4 °F 50.0 °F 59% 30.12 in 10.0 mi ENE 12.7 mph 16.1 mph N/A   Clear
3:55 PM 62.6 °F 50.0 °F 63% 30.12 in 10.0 mi ENE 9.2 mph - N/A   Clear
4:15 PM 62.6 °F 48.2 °F 59% 30.12 in 10.0 mi ENE 10.4 mph - N/A   Clear
4:35 PM 62.6 °F 48.2 °F 59% 30.11 in 10.0 mi ENE 12.7 mph - N/A   Clear
4:55 PM 60.8 °F 48.2 °F 63% 30.11 in 10.0 mi NE 10.4 mph - N/A   Mostly Cloudy
5:15 PM 60.8 °F 48.2 °F 63% 30.12 in 10.0 mi ENE 6.9 mph - N/A   Overcast
5:35 PM 60.8 °F 48.2 °F 63% 30.13 in 9.0 mi NE 6.9 mph - N/A   Overcast
5:55 PM 60.8 °F 48.2 °F 63% 30.13 in 10.0 mi ENE 9.2 mph - N/A   Overcast
6:15 PM 59.0 °F 46.4 °F 63% 30.13 in 10.0 mi East 13.8 mph 18.4 mph N/A   Scattered Clouds
6:35 PM 60.8 °F 46.4 °F 59% 30.14 in 10.0 mi East 11.5 mph - N/A   Clear
6:55 PM 59.0 °F 46.4 °F 63% 30.15 in 10.0 mi ENE 11.5 mph - N/A   Mostly Cloudy
7:15 PM 59.0 °F 46.4 °F 63% 30.16 in 10.0 mi East 9.2 mph - N/A   Mostly Cloudy
7:35 PM 57.2 °F 44.6 °F 63% 30.16 in 10.0 mi ENE 10.4 mph - N/A   Mostly Cloudy
7:55 PM 57.2 °F 44.6 °F 63% 30.15 in 10.0 mi ENE 13.8 mph 17.3 mph N/A   Mostly Cloudy
8:15 PM 57.2 °F 44.6 °F 63% 30.15 in 10.0 mi East 12.7 mph - N/A   Partly Cloudy
8:35 PM 57.2 °F 44.6 °F 63% 30.15 in 10.0 mi ENE 10.4 mph - N/A   Scattered Clouds
8:55 PM 57.2 °F 44.6 °F 63% 30.15 in 10.0 mi ENE 9.2 mph - N/A   Overcast
9:15 PM 57.2 °F 44.6 °F 63% 30.15 in 10.0 mi East 9.2 mph - N/A   Overcast
9:35 PM 57.2 °F 44.6 °F 63% 30.16 in 10.0 mi East 9.2 mph - N/A   Overcast
9:55 PM 55.4 °F 44.6 °F 67% 30.16 in 10.0 mi ENE 10.4 mph - N/A   Overcast
10:15 PM 55.4 °F 44.6 °F 67% 30.16 in 10.0 mi ENE 9.2 mph - N/A   Overcast
10:35 PM 55.4 °F 44.6 °F 67% 30.16 in 10.0 mi East 10.4 mph - N/A   Mostly Cloudy
10:55 PM 55.4 °F 44.6 °F 67% 30.16 in 10.0 mi East 9.2 mph - N/A   Mostly Cloudy
11:15 PM 55.4 °F 44.6 °F 67% 30.15 in 10.0 mi ENE 10.4 mph - N/A   Mostly Cloudy
11:35 PM 55.4 °F 44.6 °F 67% 30.14 in 10.0 mi East 9.2 mph - N/A   Mostly Cloudy
11:55 PM 55.4 °F 42.8 °F 63% 30.13 in 10.0 mi East 9.2 mph - N/A   Overcast